Location: Quedlinburg
(51.7921°N, 11.1414°E)
Time: 14:09:31
(UTC+02:00)

RS-15 - Pass Details

Date: 20 March 2026
Orbit: 1893 x 2152 km, 64.8° (Epoch: 22 April)

Event Time Altitude Azimuth Distance (km) Brightness Sun altitude
Rises 03:09:57 0° 314° (NW) 5,371 10.3 -27.7°
Reaches altitude 10° 03:13:12 10° 316° (NW) 4,398 9.8 -27.3°
Maximum altitude 03:24:40 80° 44° (NE) 2,070 8.1 -25.9°
Drops below altitude 10° 03:36:41 10° 132° (SE) 4,593 10.1 -24.4°
Sets 03:40:08 0° 134° (SE) 5,617 10.6 -24.0°
